Location: Newark
(13.8117°N, 3.6025°W)
Time: 18:59:40
(UTC+00:00)

Hubble Space Telescope - Pass Details

Date: 26 August 2019
Orbit: 536 x 540 km, 28.5° (Epoch: 17 October)

Event Time Altitude Azimuth Distance (km) Brightness Sun altitude
Rises 20:43:25 0° 283° (WNW) 2,665 5.4 -32.0°
Reaches altitude 10° 20:45:51 10° 272° (W) 1,774 4.2 -32.5°
Enters shadow 20:46:55 16° 263° (W) 1,432 3.5 -32.8°
